Snowfall_Accumulation
0.0 0.0 0.0 0.0 0.0 0.0 0.0 0.0 0.0 0.0 0.0 0.0 0.0 0.0 0.0 0.0 0.0 0.0 0.0 0.0 0.0 0.0 0.0 0.0 0.0 0.0 0.0 0.0 0.0 0.0 0.0 0.0 0.0 0.0 0.0 0.0 0.0 0.0 0.0 0.0 0.0 0.0 0.0 0.0 0.0 0.0 0.0
0.0 0.0 0.0 0.0 0.0 0.0 0.0 0.0 0.0 0.0 0.0 0.0 0.0 0.0 0.0 0.0 0.0 0.0 0.0 0.0 0.0 0.0 0.0 0.0 0.0 0.0 0.0 0.0 0.0 0.0 0.0 0.0 0.0 0.0 0.0 0.0 0.0 0.0 0.0 0.0 0.0 0.0 0.0 0.0 0.0 0.0 0.0
0.0 0.0 0.0 0.0 0.0 0.0 0.0 0.0 0.0 0.0 0.0 0.0 0.0 0.0 0.0 0.0 0.0 0.0 0.0 0.0 0.0 0.0 0.0 0.0 0.0 0.0 0.0 0.0 0.0 0.0 0.0 0.0 0.0 0.0 0.0 0.0 0.0 0.0 0.0 0.0 0.0 0.0 0.0 0.0 0.0 0.0 0.0
0.0 0.0 0.0 0.0 0.0 0.0 0.0 0.0 0.0 0.0 0.0 0.0 0.0 0.0 0.0 0.0 0.0 0.0 0.0 0.0 0.0 0.0 0.0 0.0 0.0 0.0 0.0 0.0 0.0 0.0 0.0 0.0 0.0 0.0 0.0 0.0 0.0 0.0 0.0 0.0 0.0 0.0 0.0 1.9 0.0 0.0 0.0
0.0 0.0 0.0 0.0 0.0 0.0 0.0 0.0 0.0 0.0 0.0 0.0 0.0 0.0 0.0 0.0 0.0 0.0 0.0 0.0 0.0 0.0 0.0 0.0 0.0 0.0 0.2 0.0 0.0 0.0 0.0 0.0 0.0 0.0 0.0 0.0 0.0 0.0 0.0 0.0 0.9 0.0 1.9 1.1 0.0 0.0 0.0
0.0 0.0 0.0 0.0 0.0 0.0 0.0 0.0 0.0 0.0 0.0 0.0 0.0 0.0 0.0 0.0 0.0 0.0 0.0 0.0 0.0 0.0 0.0 0.0 0.0 0.0 0.0 0.0 0.0 0.0 0.0 0.0 0.0 0.0 0.0 0.0 0.0 1.3 0.1 1.4 7.0 4.2 0.8 0.1 0.1 0.0 0.0
0.0 0.0 0.0 0.0 0.0 0.0 0.0 0.0 0.0 0.0 0.0 0.0 0.0 0.0 0.0 0.0 0.0 0.0 0.0 0.0 0.0 0.0 0.0 0.0 0.0 0.0 0.0 0.0 0.0 0.0 0.0 0.0 0.0 0.0 0.5 0.0 6.5 8.6 0.8 0.1 0.0 0.2 0.0 0.4 0.0 0.0 0.0
0.0 0.0 0.0 0.0 0.0 0.0 0.0 0.0 0.0 0.0 0.0 0.0 0.0 0.0 0.0 0.0 0.0 0.0 0.0 0.0 0.0 0.0 0.0 0.0 0.0 0.0 0.0 0.0 0.0 0.0 0.0 0.0 0.0 1.7 0.0 0.2 10.3 0.0 0.0 0.0 0.0 0.0 1.4 1.0 0.0 0.0 0.0
0.0 0.0 0.0 0.0 0.0 0.0 0.0 0.0 0.0 0.0 0.0 0.0 0.0 0.0 0.0 0.0 0.0 0.0 0.0 0.0 0.0 0.0 0.9 0.0 0.0 0.0 0.0 0.0 0.0 0.0 0.0 0.0 0.0 0.3 0.0 0.7 0.0 0.0 0.4 1.0 3.0 1.0 0.2 0.5 0.5 0.0 0.0
0.0 0.0 0.0 0.0 0.0 0.0 0.0 0.0 0.0 0.0 0.0 0.0 0.0 0.0 0.0 0.0 0.0 0.0 0.0 0.0 0.0 0.0 12.0 6.6 0.0 0.0 0.0 0.0 0.0 0.0 0.0 0.0 0.0 0.9 0.0 0.1 0.0 0.6 5.2 4.4 1.2 4.1 0.0 0.2 0.6 2.1 5.0
0.0 0.0 0.0 0.0 0.0 0.0 0.0 0.0 0.0 0.0 0.0 0.0 0.0 0.0 0.0 0.0 0.0 0.0 0.0 0.0 0.0 0.0 23.0 0.3 0.0 0.0 0.0 0.0 0.0 0.0 0.0 0.0 1.7 0.3 1.4 1.3 0.4 0.4 2.0 2.8 3.4 5.5 0.0 0.0 0.5 2.3 5.2
0.0 0.0 0.0 0.0 0.0 0.0 0.0 0.0 0.0 0.0 0.0 0.0 0.0 0.0 0.0 0.0 0.0 0.0 0.0 0.0 0.0 13.7 34.6 12.6 0.0 0.0 0.0 0.0 0.2 0.0 0.0 0.0 0.3 1.3 1.0 1.5 0.4 0.2 0.0 0.1 1.4 0.0 2.8 1.7 2.4 6.0 26.8
0.0 0.0 0.0 0.0 0.0 0.0 0.0 0.0 0.0 0.0 0.0 0.0 0.0 0.0 0.0 0.0 0.0 0.0 0.0 0.0 14.3 18.1 3.7 9.0 2.4 0.0 0.0 0.0 0.1 0.1 1.3 0.6 4.1 13.6 14.0 4.4 3.9 1.0 0.0 0.1 0.2 0.5 5.0 24.6 30.5 35.6 16.4
0.0 0.0 0.0 0.0 0.0 0.0 0.0 0.0 0.0 0.0 0.0 0.0 0.0 0.0 0.0 0.0 0.0 0.0 0.0 1.6 12.3 6.3 6.3 0.0 0.0 0.0 1.0 0.0 0.0 0.2 1.7 3.4 2.1 2.8 7.8 11.1 18.1 5.1 1.9 2.7 1.6 0.9 2.9 16.6 28.7 15.8 11.0
0.0 0.0 0.0 0.0 0.0 0.0 0.0 0.0 0.0 0.0 0.0 0.0 0.0 0.0 0.0 0.0 0.0 0.0 0.0 9.9 10.0 8.6 5.2 0.3 0.0 1.4 1.3 0.0 0.0 0.0 1.4 2.1 3.0 1.9 10.9 10.2 7.9 2.5 2.0 2.0 2.0 4.2 8.2 2.2 14.9 6.0 9.1
0.0 0.0 0.0 0.0 0.0 0.0 0.0 0.0 0.0 0.0 0.0 0.0 0.0 0.0 0.0 0.0 0.0 0.0 1.9 8.0 5.4 0.7 0.0 0.1 2.2 0.9 0.7 0.1 0.1 0.2 0.3 0.2 0.1 0.6 0.4 4.2 9.8 2.3 2.4 0.7 1.9 3.3 3.0 11.4 18.9 27.8 16.1
0.0 0.0 0.0 0.0 0.0 0.0 0.0 0.0 0.0 0.0 0.0 0.0 0.0 0.0 0.0 0.0 0.0 0.0 12.3 8.0 0.9 0.0 0.0 0.3 1.4 0.4 0.2 0.4 0.6 1.2 2.9 1.2 1.1 0.4 0.9 2.9 10.9 4.1 0.2 4.2 5.3 5.6 9.3 7.7 9.2 14.8 19.3
0.0 0.0 0.0 0.0 0.0 0.0 0.0 0.0 0.0 0.0 0.0 0.0 0.0 6.7 0.0 0.0 0.9 5.8 5.4 1.5 0.0 0.0 0.0 0.1 0.3 0.8 1.9 1.6 1.0 1.5 2.1 2.6 0.5 0.0 1.9 1.7 7.6 11.3 6.2 5.1 3.2 3.7 7.4 7.4 21.3 13.9 8.3
0.0 0.0 0.0 0.0 0.0 0.0 0.0 0.0 0.0 0.0 0.0 0.0 0.0 0.0 0.0 0.0 6.8 3.6 0.2 0.5 0.0 0.0 0.0 0.0 0.7 0.9 1.0 1.3 3.7 2.1 1.6 0.8 0.3 0.1 2.1 3.1 11.1 11.0 6.8 2.2 1.7 7.4 5.6 6.9 9.8 13.4 15.0
0.0 0.0 0.0 0.0 0.0 0.0 0.0 0.0 0.0 0.0 0.0 0.0 0.0 7.3 0.0 0.0 0.0 0.3 0.8 0.7 0.5 0.2 0.5 0.9 1.2 0.9 0.9 0.6 0.7 3.0 0.9 0.2 0.0 0.1 0.1 1.4 4.5 9.3 10.5 7.7 4.9 7.2 2.5 4.7 10.0 21.1 6.0
0.0 0.0 0.0 0.0 0.0 0.0 0.0 0.0 0.0 0.0 0.0 0.0 0.8 1.4 0.3 4.7 1.1 0.0 0.5 0.6 0.2 1.1 0.0 0.1 0.3 0.2 4.5 6.9 1.7 0.8 0.9 0.8 0.6 0.2 0.4 1.5 12.5 9.0 2.1 2.3 2.5 3.3 2.7 2.5 8.8 3.8 10.7
0.0 0.0 0.0 0.0 0.0 0.0 0.0 0.0 0.0 0.0 0.0 0.0 1.4 1.7 1.0 1.1 0.1 0.6 0.3 1.1 0.5 0.2 1.8 1.6 1.7 1.2 4.1 8.2 6.2 9.2 6.4 4.1 2.3 1.2 1.6 1.7 8.5 4.5 2.3 0.7 2.1 5.2 0.8 1.4 1.8 0.8 1.9
0.0 0.0 0.0 0.0 0.0 0.0 0.0 0.0 0.0 0.0 0.0 0.0 0.0 0.0 4.8 1.0 0.7 1.4 1.3 3.0 1.4 0.8 0.4 1.6 2.4 5.1 5.0 3.0 3.5 2.5 1.2 1.3 1.1 3.1 3.2 5.7 8.3 10.9 8.7 1.3 1.6 5.5 2.7 1.4 2.8 1.7 1.1
0.0 0.0 0.0 0.0 0.0 0.0 0.0 0.0 0.0 0.0 0.0 0.0 0.0 0.3 12.2 9.0 2.0 1.5 2.3 0.3 0.7 0.3 4.1 2.5 2.6 4.6 2.4 0.5 0.3 0.0 0.1 0.1 0.5 0.4 1.4 7.6 10.2 14.4 12.3 3.7 13.1 1.6 0.0 0.0 1.5 1.9 1.3
0.0 0.0 0.0 0.0 0.0 0.0 0.0 0.0 0.0 0.0 0.0 0.0 0.0 0.0 10.9 15.7 1.9 2.3 0.7 1.7 1.8 1.1 3.1 2.3 1.3 1.2 0.2 0.2 4.1 3.5 1.1 0.0 0.4 0.1 1.3 3.6 11.8 18.2 12.8 7.0 1.2 3.4 1.5 0.9 1.3 2.0 1.7
0.0 0.0 0.0 0.0 0.0 0.0 0.0 0.0 0.0 0.0 0.0 0.0 0.0 0.0 8.0 22.8 7.4 2.9 2.3 1.3 2.4 3.7 2.7 1.0 0.5 0.7 1.4 4.4 7.0 8.3 2.5 0.3 0.7 0.4 0.4 2.9 8.9 16.4 8.6 14.3 7.6 4.6 1.9 0.2 0.7 2.5 1.2
0.0 0.0 0.0 0.0 0.0 0.0 0.0 0.0 0.0 0.0 0.0 0.0 0.0 0.0 2.5 26.1 3.8 0.2 2.4 5.0 3.5 5.5 9.1 2.9 2.7 4.7 3.0 4.7 7.8 4.0 2.0 0.6 2.6 6.5 4.1 3.7 6.1 10.7 6.9 16.8 3.7 3.9 1.3 0.0 1.3 3.6 1.3
0.0 0.0 0.0 0.0 0.0 0.0 0.0 0.0 0.0 0.0 0.0 0.0 0.0 0.0 0.0 19.0 2.6 0.3 0.8 3.7 4.7 7.1 15.4 8.8 13.3 6.8 5.6 7.7 8.2 3.3 2.7 2.3 0.9 2.2 3.9 5.0 9.7 5.1 6.0 10.8 5.0 1.7 0.1 1.6 5.9 3.4 2.1
0.0 0.0 0.0 0.0 0.0 0.0 0.0 0.0 0.0 0.0 0.0 0.0 0.0 0.0 0.0 8.0 7.1 1.3 0.6 0.5 0.1 2.3 7.7 10.8 7.4 4.4 7.0 11.4 7.2 10.4 9.0 3.8 1.4 4.9 0.0 5.0 4.3 9.0 9.5 4.5 1.9 1.3 2.6 3.1 3.7 6.2 4.2